Flag for Iran Weather past 2 weeks in Mashhad, Iran

Now
81 °F

Sunny.


Feels Like: 79 °F
Forecast: 56 / 92 °F
Wind: 5 mph from Northeast

Location: Mashhad Airport

Current Time: Aug 1, 2014 at 11:22:23 AM

Latest Report: Aug 1, 2014 at 10:30 AM


Visibility: 10 mi

Pressure: 30.01 "Hg

Humidity: 11%

Dew point: 21 °F

Location of MashhadLocation

Historic Weather in Mashhad — Graph

°F

Mashhad temperature yesterday

Maximum temperature yesterday: 86 °F (at 1:55 PM)
Minimum temperature yesterday: 63 °F (at 5:30 AM)
Average temperature yesterday: 76 °F

Past Weeks' High & Low Weather Summary

 TemperatureHumidityPressure
High106 °F (Jul 22, 2:00 PM)44% (Jul 28, 4:55 AM)30.04 "Hg (Jul 28, 4:55 AM)
Low61 °F (Aug 1, 6:00 AM)3% (Jul 26, 1:55 PM)29.68 "Hg (Jul 22, 3:00 PM)
Average83 °F16%29.88 "Hg
* Reported Jul 17 9:30 AM — Aug 1 10:00 AM, Mashhad, Weather by CustomWeather, © 2014

Note: Actual official high and low records may vary slightly from our data, if they occured in-between our weather recording intervals... More about our weather records

Advertising

Mashhad weather history for previous 24 hours

 ConditionsComfort  
Time TempWeatherWind HumidityBarometerVisibility
10:00 AM
Aug 1
79 °FSunny.7 mph12%30.01 "Hg10 mi
9:30 AM79 °FSunny.No wind12%30.01 "Hg10 mi
9:00 AM79 °FSunny.5 mph12%30.01 "Hg10 mi
8:30 AM75 °FSunny.5 mph18%30.01 "Hg10 mi
8:00 AM75 °FSunny.No wind18%29.98 "Hg10 mi
7:30 AM72 °FSunny.No wind19%29.98 "Hg10 mi
7:00 AM70 °FClear.No wind21%29.98 "Hg10 mi
6:30 AM66 °FClear.No wind24%29.98 "Hg10 mi
6:00 AM61 °FClear.5 mph31%29.98 "Hg10 mi
5:30 AM63 °FClear.5 mph27%29.95 "Hg10 mi
4:59 AM64 °FClear.5 mph24%29.95 "Hg10 mi
4:20 AM66 °FClear.5 mph22%29.95 "Hg10 mi
3:58 AM66 °FClear.5 mph21%29.95 "Hg10 mi
3:30 AM68 °FClear.5 mph20%29.95 "Hg10 mi
3:00 AM68 °FClear.7 mph18%29.95 "Hg10 mi
2:30 AM70 °FClear.5 mph18%29.98 "Hg10 mi
2:00 AM70 °FClear.7 mph18%29.98 "Hg10 mi
1:20 AM70 °FClear.7 mph18%29.98 "Hg10 mi
1:00 AM70 °FClear.7 mph18%29.98 "Hg10 mi
12:30 AM70 °FClear.7 mph17%29.98 "Hg10 mi
12:00 AM70 °FClear.7 mph17%29.98 "Hg10 mi
11:30 PM
Jul 31
72 °FClear.7 mph17%29.98 "Hg10 mi
11:00 PM72 °FClear.7 mph17%29.98 "Hg10 mi
10:30 PM72 °FClear.5 mph17%29.98 "Hg10 mi
9:50 PM72 °FClear.7 mph17%29.98 "Hg10 mi
9:30 PM73 °FClear.7 mph16%29.98 "Hg10 mi
9:00 PM73 °FSunny.7 mph16%29.98 "Hg10 mi
8:30 PM75 °FSunny.9 mph14%29.95 "Hg10 mi
8:00 PM77 °FSunny.12 mph13%29.95 "Hg10 mi
7:30 PM81 °FSunny.16 mph11%29.95 "Hg10 mi
7:00 PM81 °FSunny.12 mph11%29.95 "Hg10 mi
6:30 PM82 °FSunny.18 mph10%29.95 "Hg10 mi
5:55 PM82 °FSunny.18 mph10%29.95 "Hg10 mi
5:30 PM84 °FSunny.14 mph9%29.95 "Hg10 mi
4:55 PM86 °FSunny.9 mph8%29.95 "Hg10 mi
4:30 PM86 °FSunny.14 mph9%29.95 "Hg10 mi
4:00 PM86 °FSunny.14 mph9%29.95 "Hg10 mi
3:30 PM86 °FSunny.16 mph8%29.95 "Hg10 mi
3:00 PM86 °FSunny.18 mph8%29.98 "Hg10 mi
2:30 PM86 °FSunny.14 mph8%29.98 "Hg10 mi
1:55 PM86 °FSunny.9 mph8%29.98 "Hg10 mi
1:30 PM84 °FSunny.9 mph9%29.98 "Hg10 mi
12:55 PM84 °FSunny.14 mph9%30.01 "Hg10 mi
12:30 PM84 °FSunny.12 mph9%30.01 "Hg10 mi
11:55 AM84 °FSunny.12 mph10%30.01 "Hg10 mi
11:30 AM82 °FSunny.12 mph11%30.04 "Hg10 mi
Weather by CustomWeather, © 2014

See weather overviewHow to use our weather pages